カタログに戻る

DGS 2-02

運用中科学SSO
NORAD 65261·PAYLOAD·🇨🇳 China
この衛星名は、まだ公式ソースで確認されていません。

打ち上げ Aug 19, 2025 から Jiuquan Satellite Launch Center

Loading…

次のパス (今後24時間)

TLE

最新Source: Space-Track

元期: Sep 14, 2026, 14:01 UTC

1 65261U 25180C   26257.58439190  .00003778  00000-0  19967-3 0  9997
2 65261  97.5356  23.9411 0013917  18.3629 341.8103 15.16019006 59202

AllMySatでDGS 2-02をリアルタイム追跡

Download on the App Store